カタログに戻る

STARLINK-32172

運用中通信VLEO
NORAD 61518·PAYLOAD·🇺🇸 United States

打ち上げ Oct 15, 2024 から Cape Canaveral Space Force Station

Loading…

次のパス (今後24時間)

TLE

最新Source: CelesTrak SupGP

元期: Sep 14, 2026, 21:40 UTC

1 61518C 24183K   26257.90326389 -.00017011  00000+0 -54695-3 0  2571
2 61518  53.1605 341.9778 0001217  75.6863 307.1288 15.31714631    10

AllMySatでSTARLINK-32172をリアルタイム追跡

Download on the App Store